Погода в Заволжском

Россия / Астраханская область     46°58′50″N   47°36′39″E
темп.,
°C
ветер,
м/с
пор.,
м/с
влажн.,
%
обл.,
%
осадки,
мм/ч
давл.,
гПа
погр.,
м
19 сентября, вс
вс1901:00+15ююв34649 0.0 1020112
04:00+13вюв34685 0.0 1020110
07:00+13в4671100 0.0 1020172
10:00+17вюв574757 0.0 1020646
13:00+21вюв684073 0.0 1019943
16:00+22вюв78415 0.0 10181045
19:00+18юв7105086 0.0 1018313
22:00+16вюв6115926 0.0 1018404
20 сентября, пн
пн2001:00+15в611635 0.0 1018325
04:00+15в612625 0.0 1017331
07:00+15в6126398 0.0 1016296
10:00+20юв6852100 0.0 1015332
13:00+24ююв4639100 0.0 1014746
16:00+25ююв4540100 0.0 10131013
19:00+22ююв5759100 0.0 1014126
22:00+19ююв587793 0.0 1015143
21 сентября, вт
вт2101:00+18ю468390 0.0 101586
04:00+18ююз458794 0.1 101569
07:00+18зюз338425 0.0 101518
10:00+21юз2262100 0.0 1016222
13:00+23ю125493 0.0 1014547
16:00+24ю2351100 0.1 10131156
19:00+24юв6943100 0.1 1011263
22:00+20юв71248100 0.1 1011252
22 сентября, ср
ср2201:00+18ююв4959100 0.0 1012169
04:00+18юв3361100 0.0 101153
07:00+18юз3367100 0.0 101226
10:00+19зсз567499 0.0 1013396
13:00+20зсз5563100 0.0 1013646
16:00+18сз5576100 0.2 1013372
19:00+17зсз5676100 0.0 1015320
22:00+14ссз4588100 3.4 1016236
23 сентября, чт
чт2301:00+15с4588100 0.4 1015245
04:00+15с5789100 0.4 1014265
07:00+16св3480100 0.0 1014103
10:00+19в4657100 0.0 1014409
13:00+21в784458 0.0 1012717
16:00+22вюв101241100 0.0 1011698
19:00+20в81342100 0.0 1010439
22:00+20в91543100 0.0 1009392